Flag for Azerbaijan Weather past 2 weeks in Sumqayit, Azerbaijan

Now
84 °F

Sunny.


Feels Like: 85 °F
Forecast: 70 / 87 °F
Wind: 13 mph from North

Location: Baku / Bine Airport

Current Time: Jul 30, 2014 at 2:49:16 PM

Latest Report: Jul 30, 2014 at 2:00 PM


Visibility: 10 mi

Pressure: 29.92 "Hg

Humidity: 48%

Dew point: 63 °F

Location of SumqayitLocation

Historic Weather in Sumqayit — Graph

°F

Sumqayit temperature yesterday

Maximum temperature yesterday: 84 °F (at 1:30 PM)
Minimum temperature yesterday: 73 °F (at 11:30 PM)
Average temperature yesterday: 78 °F

Past Weeks' High & Low Weather Summary

 TemperatureHumidityPressure
High97 °F (Jul 25, 6:30 PM)94% (Jul 24, 4:00 AM)29.98 "Hg (Jul 24, 4:00 AM)
Low66 °F (Jul 30, 2:30 AM)15% (Jul 24, 1:00 PM)29.59 "Hg (Jul 19, 3:00 PM)
Average81 °F57%29.78 "Hg
* Reported Jul 15 1:00 PM — Jul 30 1:30 PM, Sumqayit, Weather by CustomWeather, © 2014

Note: Actual official high and low records may vary slightly from our data, if they occured in-between our weather recording intervals... More about our weather records

Advertising

Sumqayit weather history for previous 24 hours

 ConditionsComfort  
Time TempWeatherWind HumidityBarometerVisibility
1:30 PM
Jul 30
82 °FSunny.13 mph51%29.92 "Hg10 mi
1:00 PM82 °FSunny.13 mph48%29.95 "Hg10 mi
12:30 PM82 °FSunny.15 mph48%29.95 "Hg10 mi
12:00 PM84 °FSunny.13 mph45%29.95 "Hg10 mi
11:30 AM82 °FSunny.14 mph45%29.95 "Hg10 mi
11:00 AM81 °FSunny.13 mph51%29.95 "Hg10 mi
10:30 AM81 °FSunny.12 mph51%29.95 "Hg10 mi
10:00 AM81 °FSunny.13 mph51%29.95 "Hg10 mi
9:30 AM79 °FSunny.12 mph54%29.95 "Hg10 mi
9:00 AM79 °FSunny.13 mph54%29.95 "Hg10 mi
8:30 AM77 °FSunny.9 mph57%29.95 "Hg10 mi
8:00 AM73 °FSunny.6 mph65%29.95 "Hg10 mi
7:30 AM70 °FClear.6 mph69%29.92 "Hg10 mi
7:00 AM66 °FClear.6 mph78%29.92 "Hg10 mi
6:30 AM66 °FClear.7 mph78%29.92 "Hg10 mi
6:00 AM66 °FClear.7 mph78%29.92 "Hg10 mi
5:30 AM66 °FClear.6 mph78%29.92 "Hg10 mi
5:00 AM66 °FClear.6 mph78%29.92 "Hg10 mi
4:30 AM66 °FClear.7 mph73%29.92 "Hg10 mi
4:00 AM66 °FClear.7 mph73%29.95 "Hg10 mi
3:30 AM66 °FClear.6 mph73%29.95 "Hg10 mi
3:00 AM66 °FClear.5 mph73%29.95 "Hg10 mi
2:30 AM66 °FClear.6 mph73%29.95 "Hg10 mi
2:00 AM68 °FClear.6 mph69%29.95 "Hg10 mi
1:30 AM68 °FClear.6 mph69%29.95 "Hg10 mi
1:00 AM68 °FClear.7 mph69%29.95 "Hg10 mi
12:30 AM68 °FClear.7 mph69%29.95 "Hg10 mi
12:00 AM70 °FClear.6 mph60%29.95 "Hg10 mi
11:30 PM
Jul 29
73 °FClear.7 mph57%29.95 "Hg10 mi
11:00 PM75 °FClear.7 mph54%29.95 "Hg10 mi
10:30 PM75 °FClear.9 mph50%29.95 "Hg10 mi
10:00 PM77 °FClear.10 mph47%29.95 "Hg10 mi
9:30 PM77 °FSunny.13 mph44%29.95 "Hg10 mi
9:00 PM77 °FSunny.14 mph47%29.95 "Hg10 mi
8:30 PM79 °FSunny.16 mph45%29.95 "Hg10 mi
8:00 PM79 °FSunny.16 mph51%29.95 "Hg10 mi
7:30 PM79 °FSunny.16 mph48%29.95 "Hg10 mi
7:00 PM81 °FSunny.16 mph48%29.95 "Hg10 mi
6:30 PM81 °FSunny.15 mph51%29.95 "Hg10 mi
6:00 PM81 °FSunny.16 mph51%29.95 "Hg10 mi
5:30 PM82 °FSunny.16 mph51%29.95 "Hg10 mi
5:00 PM82 °FSunny.16 mph51%29.95 "Hg10 mi
4:30 PM82 °FSunny.15 mph51%29.95 "Hg10 mi
4:00 PM81 °FSunny.16 mph51%29.95 "Hg10 mi
3:30 PM81 °FSunny.15 mph51%29.95 "Hg10 mi
3:00 PM82 °FSunny.15 mph48%29.95 "Hg10 mi
2:30 PM82 °FSunny.15 mph48%29.95 "Hg10 mi
2:00 PM82 °FSunny.16 mph51%29.95 "Hg10 mi
Weather by CustomWeather, © 2014

See weather overviewHow to use our weather pages